IRIDIUM 33 DEB, 40998

Orbit data source: Space-Track

IRIDIUM 33 DEB, 40998 is space debris in LEO originally from a launch on Sun, 14 Sep 1997 UTC launched from the Tyuratam Missile And Space Complex (TTMTR). The debris from Iridium 33, an American commercial communications satellite, has been tracked extensively since its accidental collision with the defunct Russian satellite Cosmos 2251 in 2009. This event, occurring at high speed in low Earth orbit (LEO), generated thousands of pieces of space debris, significantly increasing the risk of further collisions. The Iridium 33 debris cloud has impacted space traffic management and orbital debris mitigation strategies, making it a subject of ongoing study in space situational awareness.

Loading next visibility...
Identifier
40998, 1997-051ABL
Orbit
LEO
Country
Flag of USUS
Related business
Manufacturer
Unknown
Mission
Spacecraft
Bus & Motor
Unknown
Mass
Unknown
Launch date (UTC)
1997-09-14 (29 years ago)
Launch vehicle
Unknown
Launch site
Tyuratam Missile And Space Complex (TTMTR)
Object type
Payload
Rocket body
Debris
Shape & HBR
Unknown shape, 0.050 m
Radar Cross Section
Small (<0.1 m²)

Expand to show TLE details & history
Last TLE update: 11 hours ago

TLE from 11 hours ago
0 IRIDIUM 33 DEB
1 40998U 97051ABL 26266.84234177  .00000859  00000-0  23594-3 0  9998
2 40998  86.3785 291.7970 0006649 193.9111 288.2105 14.45944522108009
Epoch: 2026-09-23T20:12Z
TLE epoch observation values (Epoch: 2026-09-23T20:12:58.328Z)
Latitude
57.8658°
Longitude
160.1143°
Altitude
747.285 km
Speed
7.487 km/s
True Right ascension
07h 04m 10s
True Declination
57° 42' 38"
Sunlit
Object was in daylight at epoch
Visualization orbit readout
Latitude
Unknown
Longitude
Unknown
Altitude
Unknown
Speed
Unknown
Apparent Right ascension
Unknown
Apparent Declination
Unknown
Sunlit
N/A
Visualization observer readout
Local Sidereal Time
23:59:17
Azimuth
Unknown
Elevation
Unknown
Doppler factor
Unknown
Orbital elements
Apogee altitude
740.603 km
Perigee altitude
731.143 km
Semi-major axis
7,114.01 km
Eccentricity
0.00066
Inclination
86.3785°
RAAN
291.797°
Arg. of periapsis
193.9111°
True anomaly
288.13811°
Mean anomaly
288.2105°
Eccentric anomaly
288.1743°
Mean motion
3.61719 °/min
Orbital period
99.52 mins
BSTAR
0.00023594
Loading maneuver chart data...
Computing Atmospheric mass density...

Documentation

Showing up to 5 results
|